User: anonymous   Login
Location: Caltech
(34.1382°N, 118.1253°W)
Time: 19:39:18
(UTC-07:00)
Language:

NOSS 3-4 (C) - Orbit

View from above orbital plane
View from above orbital plane
View from above satellite
View from above satellite

Ground track
Ground track

The orbit data is extracted from the following two-line orbital elements,

1 31708U 07027C   15190.88641461 0.00000000  00000-0  00000-0 0    02
2 31708  63.4030  88.7916 0134000  30.8312 329.1688 13.40687080    05
Epoch (UTC): 09 July 2015 21:16:26
Eccentricity: 0.0134000
inclination: 63.4030°
perigee height: 1006 km
apogee height: 1207 km
right ascension of ascending node: 88.7916°
argument of perigee: 30.8312°
revolutions per day: 13.40687080
mean anomaly at epoch: 329.1688°
orbit number at epoch: 0

The dashed part of the orbit path shows where the satellite is in the earth's shadow,  

DLR